KC5MUJ-1 Weather Reports


Display with metric or nautical units.
time (UTC)temp
F
wind
direction
speed
MPH
gust
MPH
rain 1hr
in
rain 24hr
in
rain mn
in
humidity
%
barometer
mb
20260509222001 88 107 0.0 0.0 0.00 0.00 0.00 50 1009.1
20260509221501 88 146 0.0 0.0 0.00 0.00 0.00 49 1009.2
20260509221002 89 149 0.0 0.0 0.00 0.00 0.00 49 1009.0
20260509220501 89 177 0.0 0.0 0.00 0.00 0.00 49 1009.1
20260509220002 90 180 0.0 0.0 0.00 0.00 0.00 50 1009.1
20260509215502 90 144 0.0 0.0 0.00 0.00 0.00 50 1009.2
20260509215002 90 147 0.0 0.0 0.00 0.00 0.00 51 1009.2
20260509214501 90 149 0.0 0.0 0.00 0.00 0.00 51 1009.2
20260509214002 90 176 0.0 0.0 0.00 0.00 0.00 53 1009.5
20260509213501 89 188 0.0 0.0 0.00 0.00 0.00 53 1009.4
20260509213001 89 148 0.0 0.0 0.00 0.00 0.00 62 1009.4
20260509212001 88 89 0.0 1.0 0.00 0.00 0.00 60 1009.6
20260509211502 89 90 0.0 1.0 0.00 0.00 0.00 58 1009.6
20260509210501 90 94 0.0 0.0 0.00 0.00 0.00 57 1009.8
20260509210003 90 132 0.0 3.0 0.00 0.00 0.00 54 1010.0
20260509205501 90 196 0.0 3.0 0.00 0.00 0.00 55 1009.9
20260509205001 90 98 0.0 0.0 0.00 0.00 0.00 49 1009.6
20260509204501 90 97 0.0 0.0 0.00 0.00 0.00 49 1009.6
20260509204000 89 97 0.0 0.0 0.00 0.00 0.00 51 1009.8
20260509203500 88 119 0.0 0.0 0.00 0.00 0.00 51 1009.6
20260509203000 86 119 0.0 0.0 0.00 0.00 0.00 55 1009.7
20260509202500 85 103 0.0 0.0 0.00 0.00 0.00 60 1009.9
20260509202001 83 103 0.0 0.0 0.00 0.00 0.00 62 1009.9
20260509201500 82 103 0.0 0.0 0.00 0.00 0.00 66 1010.0
20260509200500 80 104 0.0 3.0 0.00 0.00 0.00 73 1011.0
20260509200000 79 96 0.0 9.0 0.00 0.00 0.00 72 1011.0
20260509195500 78 79 0.0 9.0 0.00 0.00 0.00 75 1011.2
20260509195001 77 124 0.0 8.0 0.00 0.00 0.00 73 1011.0
20260509194500 77 81 0.0 3.0 0.00 0.00 0.00 73 1011.0
20260509194000 78 87 0.0 2.0 0.00 0.00 0.00 71 1010.9
20260509193500 81 38 0.0 3.0 0.00 0.00 0.00 66 1010.7
20260509193000 85 63 0.0 3.0 0.00 0.00 0.00 59 1010.8
20260509192501 88 76 0.0 2.0 0.00 0.00 0.00 58 1010.6
20260509191500 91 73 0.0 0.0 0.00 0.00 0.00 62 1010.6
20260509191000 92 204 0.0 0.0 0.00 0.00 0.00 57 1010.5
20260509190500 92 204 0.0 0.0 0.00 0.00 0.00 57 1010.4
20260509190000 92 192 0.0 0.0 0.00 0.00 0.00 60 1010.4
20260509185000 92 88 0.0 0.0 0.00 0.00 0.00 63 1010.5
20260509184501 92 194 0.0 0.0 0.00 0.00 0.00 63 1010.7
20260509184001 92 194 0.0 0.0 0.00 0.00 0.00 62 1010.8
20260509183000 92 178 0.0 0.0 0.00 0.00 0.00 61 1011.2
20260509182501 92 172 0.0 0.0 0.00 0.00 0.00 61 1011.2
20260509182001 92 170 0.0 0.0 0.00 0.00 0.00 61 1011.3
20260509181500 92 176 0.0 0.0 0.00 0.00 0.00 62 1011.3
20260509180501 91 213 0.0 0.0 0.00 0.00 0.00 62 1011.4
20260509180002 91 208 0.0 4.0 0.00 0.00 0.00 65 1011.5
20260509175502 90 205 0.0 4.0 0.00 0.00 0.00 67 1011.5
20260509174502 90 170 0.0 0.0 0.00 0.00 0.00 68 1011.6
20260509174000 89 171 0.0 0.0 0.00 0.00 0.00 68 1011.8
20260509173500 89 38 0.0 6.0 0.00 0.00 0.00 67 1012.0
20260509173000 89 86 0.0 6.0 0.00 0.00 0.00 67 1012.1
20260509172500 89 193 0.0 0.0 0.00 0.00 0.00 67 1012.0
20260509172000 89 173 0.0 0.0 0.00 0.00 0.00 66 1012.2
20260509171503 89 144 0.0 0.0 0.00 0.00 0.00 68 1012.0
20260509170500 89 181 0.0 4.0 0.00 0.00 0.00 70 1012.1
20260509170000 89 203 0.0 0.0 0.00 0.00 0.00 70 1011.9
20260509165500 88 182 0.0 0.0 0.00 0.00 0.00 71 1011.9
20260509165000 88 213 0.0 0.0 0.00 0.00 0.00 71 1011.9
20260509164500 88 210 0.0 0.0 0.00 0.00 0.00 72 1012.0
20260509164000 88 193 0.0 0.0 0.00 0.00 0.00 72 1012.1
20260509163500 88 209 0.0 0.0 0.00 0.00 0.00 72 1012.1
20260509163000 87 194 0.0 0.0 0.00 0.00 0.00 73 1012.0
20260509162500 87 201 0.0 0.0 0.00 0.00 0.00 74 1012.0
20260509162000 87 205 0.0 0.0 0.00 0.00 0.00 73 1012.2
20260509161500 86 189 0.0 0.0 0.00 0.00 0.00 76 1012.2
20260509161000 85 193 0.0 0.0 0.00 0.00 0.00 76 1012.1
20260509160500 85 193 0.0 0.0 0.00 0.00 0.00 75 1012.2
20260509160002 85 184 0.0 0.0 0.00 0.00 0.00 76 1012.1
20260509155500 84 174 0.0 0.0 0.00 0.00 0.00 79 1012.2
20260509155000 84 213 0.0 0.0 0.00 0.00 0.00 80 1012.3
20260509154501 83 194 0.0 0.0 0.00 0.00 0.00 82 1012.1
20260509154000 82 179 0.0 9.0 0.00 0.00 0.00 83 1012.2
20260509153502 81 200 0.0 9.0 0.00 0.00 0.00 85 1012.1
20260509152500 80 209 0.0 0.0 0.00 0.00 0.00 86 1012.2
20260509152000 80 169 0.0 0.0 0.00 0.00 0.00 87 1012.1
20260509151001 78 140 0.0 0.0 0.00 0.00 0.00 90 1012.1
20260509150500 78 191 0.0 0.0 0.00 0.00 0.00 90 1012.1
20260509150000 77 191 0.0 0.0 0.00 0.00 0.00 91 1012.1
20260509145500 77 192 0.0 0.0 0.00 0.00 0.00 93 1012.0
20260509144500 76 131 0.0 2.0 0.00 0.00 0.00 93 1012.1
20260509144000 76 185 0.0 3.0 0.00 0.00 0.00 93 1012.0
20260509143500 76 131 0.0 3.0 0.00 0.00 0.00 94 1012.0
20260509143000 76 186 0.0 2.0 0.00 0.00 0.00 94 1011.8
20260509142500 76 182 0.0 2.0 0.00 0.00 0.00 93 1011.7
20260509142000 76 147 0.0 2.0 0.00 0.00 0.00 94 1011.9
20260509141500 76 180 0.0 2.0 0.00 0.00 0.00 94 1011.7
20260509141001 75 133 0.0 4.0 0.00 0.00 0.00 96 1011.5
20260509140501 75 132 0.0 4.0 0.00 0.00 0.00 95 1011.2
20260509140000 75 197 0.0 0.0 0.00 0.00 0.00 96 1011.2
20260509135501 75 200 0.0 5.0 0.00 0.00 0.00 97 1011.5
20260509135002 75 196 0.0 5.0 0.00 0.00 0.00 97 1011.5
20260509134001 74 344 0.0 0.0 0.00 0.00 0.00 99 1011.6
20260509133501 73 344 0.0 0.0 0.00 0.00 0.00 99 1011.7
20260509132500 73 344 0.0 3.0 0.00 0.00 0.00 99 1012.0
20260509132001 73 344 0.0 1.0 0.00 0.00 0.00 99 1012.1
20260509131500 73 346 0.0 0.0 0.00 0.00 0.00 99 1012.1
20260509131002 73 348 0.0 1.0 0.00 0.00 0.00 99 1012.2
20260509130500 73 351 0.0 1.0 0.00 0.00 0.00 100 1012.0
20260509125500 72 95 0.0 0.0 0.00 0.00 0.00 99 1011.7
20260509125000 72 95 0.0 0.0 0.00 0.00 0.00 99 1012.0
20260509124500 72 95 0.0 0.0 0.00 0.00 0.00 99 1011.8
20260509124000 72 95 0.0 0.0 0.00 0.00 0.00 99 1011.5
20260509123502 72 95 0.0 0.0 0.00 0.00 0.00 99 1011.4
20260509123000 72 95 0.0 0.0 0.00 0.00 0.00 99 1011.5
20260509122500 72 95 0.0 0.0 0.00 0.00 0.00 99 1011.6
20260509122000 72 95 0.0 0.0 0.00 0.00 0.00 99 1011.8
20260509121500 72 95 0.0 0.0 0.00 0.00 0.00 99 1011.7
20260509120500 72 95 0.0 2.0 0.00 0.00 0.00 99 1011.4
20260509120001 72 102 0.0 0.0 0.00 0.00 0.00 99 1011.5
20260509115000 72 109 0.0 0.0 0.00 0.00 0.00 99 1011.9
20260509114502 72 114 0.0 0.0 0.00 0.00 0.00 99 1011.9
20260509114002 72 114 0.0 0.0 0.00 0.00 0.00 99 1011.7
20260509113500 72 114 0.0 0.0 0.00 0.00 0.00 99 1012.0
20260509113000 72 167 0.0 0.0 0.00 0.00 0.00 99 1012.4
20260509112501 72 167 0.0 0.0 0.00 0.00 0.00 99 1012.4
20260509112001 72 167 0.0 0.0 0.00 0.00 0.00 99 1012.4
20260509111500 72 167 0.0 0.0 0.00 0.00 0.00 99 1012.5
20260509111001 72 167 0.0 0.0 0.00 0.00 0.00 99 1012.7
20260509110500 72 167 0.0 0.0 0.00 0.00 0.00 99 1012.5
20260509110001 72 167 0.0 0.0 0.00 0.00 0.00 99 1012.5
20260509105500 72 167 0.0 0.0 0.00 0.00 0.00 99 1012.6
20260509105000 72 167 0.0 0.0 0.00 0.00 0.00 99 1012.7
20260509104501 72 167 0.0 0.0 0.00 0.00 0.00 99 1012.6
20260509104000 72 167 0.0 0.0 0.00 0.00 0.00 99 1012.5
20260509103500 72 167 0.0 0.0 0.00 0.00 0.00 99 1012.5
20260509103001 72 166 0.0 0.0 0.00 0.00 0.00 99 1012.7
20260509102500 72 166 0.0 0.0 0.00 0.00 0.00 99 1012.7
20260509102000 72 167 0.0 0.0 0.00 0.00 0.00 99 1012.6
20260509101000 72 167 0.0 0.0 0.00 0.00 0.00 99 1012.4
20260509100500 72 167 0.0 0.0 0.00 0.00 0.00 99 1012.1
20260509100001 72 167 0.0 0.0 0.00 0.00 0.00 99 1011.6
20260509095501 72 167 0.0 0.0 0.00 0.00 0.00 99 1011.3
20260509095001 72 167 0.0 0.0 0.00 0.00 0.00 99 1011.2
20260509092500 72 167 0.0 0.0 0.00 0.00 0.00 98 1011.2
20260509092001 72 167 0.0 0.0 0.00 0.00 0.00 98 1011.2
20260509091001 72 167 0.0 0.0 0.00 0.00 0.00 98 1011.1
20260509090501 72 167 0.0 0.0 0.00 0.00 0.00 98 1011.1
20260509085500 72 167 0.0 0.0 0.00 0.00 0.00 98 1011.3
20260509084000 72 167 0.0 0.0 0.00 0.00 0.00 98 1011.4
20260509083500 72 167 0.0 0.0 0.00 0.00 0.00 98 1011.4
20260509083000 72 167 0.0 0.0 0.00 0.00 0.00 98 1011.3
20260509082502 72 167 0.0 0.0 0.00 0.00 0.00 98 1011.6
20260509082000 72 167 0.0 0.0 0.00 0.00 0.00 98 1011.8
20260509081503 72 167 0.0 0.0 0.00 0.00 0.00 98 1011.9
20260509081001 72 167 0.0 0.0 0.00 0.00 0.00 98 1011.6
20260509080501 72 173 0.0 0.0 0.00 0.00 0.00 98 1011.6
20260509080001 72 173 0.0 0.0 0.00 0.00 0.00 98 1011.7
20260509075002 72 173 0.0 0.0 0.00 0.00 0.00 97 1011.8
20260509074001 72 173 0.0 0.0 0.00 0.00 0.00 97 1011.7
20260509073501 72 173 0.0 0.0 0.00 0.00 0.00 97 1011.6
20260509073001 72 173 0.0 0.0 0.00 0.00 0.00 97 1011.7
20260509072001 72 174 0.0 0.0 0.00 0.00 0.00 97 1012.0
20260509071501 72 174 0.0 0.0 0.00 0.00 0.00 97 1012.0
20260509071002 72 174 0.0 0.0 0.00 0.00 0.00 97 1012.0
20260509070501 72 174 0.0 0.0 0.00 0.00 0.00 97 1011.9
20260509065501 72 174 0.0 0.0 0.00 0.00 0.00 96 1012.0
20260509065001 73 173 0.0 0.0 0.00 0.00 0.00 96 1011.7
20260509064501 73 173 0.0 0.0 0.00 0.00 0.00 96 1011.4
20260509064002 73 173 0.0 0.0 0.00 0.00 0.00 96 1011.4
20260509063501 73 188 0.0 0.0 0.00 0.00 0.00 95 1011.6
20260509063006 73 188 0.0 0.0 0.00 0.00 0.00 95 1011.7
20260509062002 73 206 0.0 0.0 0.00 0.00 0.00 95 1011.7
20260509061501 73 210 0.0 0.0 0.00 0.00 0.00 94 1011.6
20260509061001 73 161 0.0 3.0 0.00 0.00 0.00 94 1011.3
20260509060503 73 101 0.0 2.0 0.00 0.00 0.00 94 1011.1
20260509060003 73 111 0.0 1.0 0.00 0.00 0.00 94 1011.1
20260509055001 73 134 0.0 1.0 0.00 0.00 0.00 93 1011.3
20260509054503 74 175 0.0 1.0 0.00 0.00 0.00 93 1011.4
20260509054002 74 127 0.0 0.0 0.00 0.00 0.00 93 1011.4
20260509053501 74 116 0.0 3.0 0.00 0.00 0.00 93 1011.4
20260509053001 74 186 0.0 3.0 0.00 0.00 0.00 93 1011.1
20260509052504 74 187 0.0 2.0 0.00 0.00 0.00 93 1010.8
20260509052003 74 188 0.0 2.0 0.00 0.00 0.00 93 1010.7
20260509051504 74 128 0.0 2.0 0.00 0.00 0.00 93 1010.7
20260509051003 74 142 0.0 2.0 0.00 0.00 0.00 92 1010.6
20260509050501 74 167 0.0 1.0 0.00 0.00 0.00 92 1010.8
20260509050003 74 130 0.0 0.0 0.00 0.00 0.00 92 1010.8
20260509045504 74 130 0.0 0.0 0.00 0.00 0.00 92 1010.7
20260509044002 74 136 0.0 1.0 0.00 0.00 0.00 91 1010.7
20260509043504 74 161 0.0 1.0 0.00 0.00 0.00 91 1010.8
20260509043003 74 98 0.0 1.0 0.00 0.00 0.00 91 1010.8
20260509042503 75 98 0.0 1.0 0.00 0.00 0.00 91 1010.8
20260509042001 74 140 0.0 1.0 0.00 0.00 0.00 91 1011.1
20260509041503 74 149 0.0 1.0 0.00 0.00 0.00 91 1011.1
20260509041005 74 189 0.0 2.0 0.00 0.00 0.00 91 1011.3
20260509040502 74 198 0.0 2.0 0.00 0.00 0.00 90 1011.1
20260509040002 74 102 0.0 1.0 0.00 0.00 0.00 90 1011.1
20260509035502 75 194 0.0 0.0 0.00 0.00 0.00 90 1011.0
20260509035001 75 148 0.0 2.0 0.00 0.00 0.00 90 1011.0
20260509034501 75 105 0.0 1.0 0.00 0.00 0.00 90 1010.8
20260509034002 75 92 0.0 1.0 0.00 0.00 0.00 90 1010.7
20260509033502 75 84 0.0 0.0 0.00 0.00 0.00 90 1011.0
20260509033004 75 84 0.0 0.0 0.00 0.00 0.00 90 1011.1
20260509032502 75 84 0.0 0.0 0.00 0.00 0.00 90 1011.1
20260509025002 75 92 0.0 0.0 0.00 0.00 0.00 88 1010.7
20260509024504 75 92 0.0 1.0 0.00 0.00 0.00 88 1010.6
20260509024004 75 96 0.0 1.0 0.00 0.00 0.00 87 1010.4
20260509023002 75 96 0.0 0.0 0.00 0.00 0.00 87 1010.3
20260509022502 75 96 0.0 0.0 0.00 0.00 0.00 87 1010.3
20260509021502 76 88 0.0 1.0 0.00 0.00 0.00 86 1010.2
20260509021002 76 134 0.0 0.0 0.00 0.00 0.00 86 1010.0
20260509020502 76 101 0.0 0.0 0.00 0.00 0.00 86 1010.0
20260509020003 76 98 0.0 1.0 0.00 0.00 0.00 85 1009.8
20260509015504 76 103 0.0 1.0 0.00 0.00 0.00 85 1009.8
20260509015002 76 94 0.0 1.0 0.00 0.00 0.00 85 1009.6
20260509014501 77 91 0.0 3.0 0.00 0.00 0.00 85 1009.8
20260509014003 77 79 0.0 3.0 0.00 0.00 0.00 84 1009.8
20260509013504 77 101 0.0 1.0 0.00 0.00 0.00 84 1010.0
20260509012502 77 92 0.0 0.0 0.00 0.00 0.00 84 1009.7
20260509012001 77 92 0.0 0.0 0.00 0.00 0.00 83 1009.7
20260509010502 77 94 0.0 0.0 0.00 0.00 0.00 83 1009.7
20260509005502 78 86 0.0 0.0 0.00 0.00 0.00 82 1009.6
20260509004504 78 90 0.0 2.0 0.00 0.00 0.00 82 1009.7
20260509004003 78 90 0.0 2.0 0.00 0.00 0.00 81 1009.6
20260509003501 79 95 0.0 1.0 0.00 0.00 0.00 81 1009.5
20260509003001 79 83 0.0 1.0 0.00 0.00 0.00 81 1009.5
20260509002504 79 134 0.0 1.0 0.00 0.00 0.00 80 1009.6
20260509002004 79 111 0.0 1.0 0.00 0.00 0.00 80 1009.7
20260509001004 79 94 0.0 0.0 0.00 0.00 0.00 79 1009.5
20260509000504 80 91 0.0 0.0 0.00 0.00 0.00 79 1009.6
20260509000005 80 103 0.0 0.0 0.00 0.00 0.00 78 1009.7
20260508235502 80 117 0.0 1.0 0.00 0.00 0.00 78 1009.6
20260508235001 80 92 0.0 1.0 0.00 0.00 0.00 78 1009.5
20260508234501 80 84 0.0 1.0 0.00 0.00 0.00 78 1009.6
20260508234002 80 93 0.0 1.0 0.00 0.00 0.00 77 1009.7
20260508233503 80 93 0.0 1.0 0.00 0.00 0.00 77 1009.8
20260508233002 80 92 0.0 0.0 0.00 0.00 0.00 77 1009.5
20260508232502 80 99 0.0 0.0 0.00 0.00 0.00 77 1009.5
20260508231502 81 95 0.0 0.0 0.00 0.00 0.00 76 1009.6
20260508231003 81 88 0.0 0.0 0.00 0.00 0.00 76 1009.7
20260508230501 81 155 0.0 0.0 0.00 0.00 0.00 76 1009.6
20260508230002 81 139 0.0 1.0 0.00 0.00 0.00 76 1009.5
20260508225503 81 139 0.0 1.0 0.00 0.00 0.00 75 1009.6
20260508225002 81 193 0.0 3.0 0.00 0.00 0.00 75 1009.7
20260508224502 81 93 0.0 3.0 0.00 0.00 0.00 76 1009.6
20260508224002 81 85 0.0 1.0 0.00 0.00 0.00 75 1009.5
20260508223502 81 95 0.0 2.0 0.00 0.00 0.00 74 1009.6
20260508223002 82 90 0.0 2.0 0.00 0.00 0.00 74 1009.7